BHE1016 ZUCK-ZGKL

Flight info

Callsign BHE1016
Flight time 1h 6m
Altitude 35100
Route VILUS1Z VILUS W180 LIDMA W182 LAGEX G586 SJG SJG9W
Aircraft B772/H-SDE2E3FGHIJ5LORVWXY/LB1D1

Departure

Time 2026-05-06 13:48
Airport Chongqing Jiangbei International Airport (ZUCK)

Arrival

Time 2026-05-06 14:54
Airport Guilin Liangjiang International Airport (ZGKL)
Time Latitude Longitude Altitude Speed Heading
2026-05-06 13:30 29.71540 106.65687 1378 ft 0 kts 295°
2026-05-06 13:40 29.71536 106.65694 1378 ft 2 kts 295°
2026-05-06 13:41 29.71530 106.65710 1378 ft 2 kts 304°
2026-05-06 13:41 29.71516 106.65727 1378 ft 2 kts 322°
2026-05-06 13:41 29.71508 106.65734 1378 ft 2 kts 330°
2026-05-06 13:41 29.71495 106.65741 1378 ft 2 kts 343°
2026-05-06 13:42 29.71480 106.65745 1378 ft 2 kts 356°
2026-05-06 13:42 29.71465 106.65745 1378 ft 2 kts
2026-05-06 13:42 29.71451 106.65741 1378 ft 0 kts 20°
2026-05-06 13:42 29.71448 106.65739 1378 ft 0 kts 21°
2026-05-06 13:45 29.71460 106.65745 1378 ft 4 kts 20°
2026-05-06 13:46 29.71498 106.65765 1378 ft 6 kts 45°
2026-05-06 13:46 29.71515 106.65837 1378 ft 11 kts 91°
2026-05-06 13:46 29.71488 106.65979 1378 ft 16 kts 107°
2026-05-06 13:46 29.71464 106.66066 1378 ft 18 kts 105°
2026-05-06 13:47 29.71510 106.66174 1379 ft 19 kts 16°
2026-05-06 13:47 29.71651 106.66222 1379 ft 27 kts 18°
2026-05-06 13:47 29.72432 106.66489 1407 ft 153 kts 16°
2026-05-06 13:47 29.73168 106.66763 1843 ft 177 kts 17°
2026-05-06 13:48 29.74675 106.67255 3680 ft 180 kts 17°
2026-05-06 13:48 29.75837 106.67663 4666 ft 184 kts 17°
2026-05-06 13:48 29.76678 106.67962 5116 ft 197 kts 18°
2026-05-06 13:48 29.77938 106.68759 5790 ft 219 kts 34°
2026-05-06 13:49 29.79235 106.69801 6505 ft 238 kts 33°
2026-05-06 13:49 29.80646 106.70861 7319 ft 253 kts 31°
2026-05-06 13:49 29.82184 106.71967 8177 ft 268 kts 30°
2026-05-06 13:49 29.83800 106.73139 9014 ft 283 kts 34°
2026-05-06 13:50 29.85138 106.74797 9977 ft 294 kts 57°
2026-05-06 13:50 29.85997 106.77874 10989 ft 319 kts 86°
2026-05-06 13:50 29.85892 106.79600 11403 ft 333 kts 102°
2026-05-06 13:50 29.84920 106.83092 12338 ft 355 kts 109°
2026-05-06 13:51 29.84389 106.84887 12800 ft 365 kts 108°
2026-05-06 13:51 29.83591 106.87733 13513 ft 379 kts 108°
2026-05-06 13:51 29.82646 106.90576 14394 ft 386 kts 117°
2026-05-06 13:51 29.81223 106.93233 15063 ft 398 kts 128°
2026-05-06 13:52 29.79335 106.95600 15691 ft 410 kts 139°
2026-05-06 13:52 29.77030 106.97568 16450 ft 416 kts 150°
2026-05-06 13:52 29.74414 106.99020 17319 ft 418 kts 161°
2026-05-06 13:52 29.71606 106.99889 18179 ft 419 kts 172°
2026-05-06 13:53 29.68685 107.00150 18968 ft 423 kts 183°
2026-05-06 13:53 29.65712 106.99761 19721 ft 426 kts 194°
2026-05-06 13:53 29.62847 106.98860 20489 ft 430 kts 197°
2026-05-06 13:53 29.59895 106.98072 21272 ft 436 kts 194°
2026-05-06 13:54 29.56862 106.97493 22041 ft 442 kts 191°
2026-05-06 13:54 29.53780 106.97083 22781 ft 448 kts 188°
2026-05-06 13:54 29.50630 106.96787 23504 ft 454 kts 187°
2026-05-06 13:54 29.47448 106.96566 24274 ft 458 kts 186°
2026-05-06 13:55 29.44244 106.96401 25047 ft 462 kts 186°
2026-05-06 13:55 29.40992 106.96268 25746 ft 467 kts 185°
2026-05-06 13:55 29.37724 106.96164 26424 ft 472 kts 185°
2026-05-06 13:55 29.34349 106.96075 27125 ft 476 kts 185°
2026-05-06 13:56 29.30992 106.96002 27776 ft 481 kts 185°
2026-05-06 13:56 29.29209 106.95966 28105 ft 484 kts 185°
2026-05-06 13:56 29.23899 106.95874 29162 ft 489 kts 185°
2026-05-06 13:57 29.21493 106.95836 29637 ft 491 kts 185°
2026-05-06 13:57 29.19511 106.95806 30004 ft 493 kts 185°
2026-05-06 13:57 29.13334 106.95718 31005 ft 502 kts 185°
2026-05-06 13:57 29.07821 106.95646 32126 ft 503 kts 186°
2026-05-06 13:58 29.04309 106.95602 32981 ft 500 kts 186°
2026-05-06 13:58 29.00852 106.95560 33851 ft 497 kts 186°
2026-05-06 13:58 28.97359 106.95517 34670 ft 496 kts 186°
2026-05-06 13:58 28.93921 106.95474 35105 ft 497 kts 186°
2026-05-06 13:59 28.86989 106.95391 35135 ft 493 kts 186°
2026-05-06 13:59 28.80087 106.95306 35119 ft 494 kts 186°
2026-05-06 14:00 28.73120 106.95222 35060 ft 494 kts 186°
2026-05-06 14:00 28.66228 106.95140 35063 ft 493 kts 186°
2026-05-06 14:01 28.59335 106.95336 35094 ft 494 kts 184°
2026-05-06 14:01 28.52389 106.95630 35136 ft 495 kts 184°
2026-05-06 14:02 28.45469 106.95910 35162 ft 497 kts 184°
2026-05-06 14:02 28.38380 106.96185 35150 ft 506 kts 184°
2026-05-06 14:03 28.31328 106.96460 35142 ft 505 kts 184°
2026-05-06 14:03 28.24249 106.96732 35135 ft 506 kts 184°
2026-05-06 14:04 28.17132 106.97003 35131 ft 506 kts 184°
2026-05-06 14:04 28.10043 106.97272 35118 ft 507 kts 184°
2026-05-06 14:05 28.02973 106.97540 35100 ft 506 kts 184°
2026-05-06 14:05 27.95925 106.97807 35090 ft 505 kts 184°
2026-05-06 14:06 27.88789 106.98075 35099 ft 505 kts 184°
2026-05-06 14:06 27.81738 106.98341 35103 ft 506 kts 184°
2026-05-06 14:07 27.74686 106.98606 35110 ft 504 kts 184°
2026-05-06 14:07 27.67597 106.98872 35103 ft 505 kts 184°
2026-05-06 14:08 27.60538 106.99136 35096 ft 506 kts 184°
2026-05-06 14:08 27.53466 106.99401 35082 ft 506 kts 184°
2026-05-06 14:09 27.46339 106.99667 35085 ft 506 kts 184°
2026-05-06 14:09 27.39302 106.99931 35088 ft 505 kts 184°
2026-05-06 14:10 27.32208 107.00195 35096 ft 504 kts 184°
2026-05-06 14:10 27.25171 107.00458 35096 ft 504 kts 184°
2026-05-06 14:11 27.18634 107.00700 35099 ft 504 kts 184°
2026-05-06 14:12 27.08061 107.01258 35109 ft 508 kts 178°
2026-05-06 14:12 27.03168 107.02650 35108 ft 518 kts 165°
2026-05-06 14:13 26.98582 107.05150 35117 ft 534 kts 153°
2026-05-06 14:13 26.94476 107.08661 35110 ft 536 kts 141°
2026-05-06 14:14 26.89467 107.15859 35110 ft 551 kts 121°
2026-05-06 14:14 26.88203 107.18807 35105 ft 553 kts 114°
2026-05-06 14:15 26.86645 107.24548 35120 ft 557 kts 104°
2026-05-06 14:15 26.85728 107.28964 35109 ft 559 kts 104°
2026-05-06 14:16 26.84958 107.32549 35110 ft 558 kts 104°
2026-05-06 14:16 26.84518 107.34535 35113 ft 558 kts 105°
2026-05-06 14:17 26.82790 107.42042 35103 ft 558 kts 106°
2026-05-06 14:17 26.81662 107.46761 35107 ft 556 kts 106°
2026-05-06 14:18 26.79612 107.55118 35102 ft 556 kts 107°
2026-05-06 14:18 26.77525 107.63447 35095 ft 555 kts 107°
2026-05-06 14:19 26.75422 107.71680 35065 ft 555 kts 108°
2026-05-06 14:19 26.73282 107.79987 35054 ft 556 kts 107°
2026-05-06 14:20 26.71131 107.88283 35050 ft 556 kts 107°
2026-05-06 14:20 26.68989 107.96512 35043 ft 553 kts 108°
2026-05-06 14:21 26.66833 108.04761 35050 ft 553 kts 107°
2026-05-06 14:21 26.64674 108.12995 35065 ft 554 kts 107°
2026-05-06 14:22 26.62519 108.21191 35076 ft 554 kts 107°
2026-05-06 14:22 26.60344 108.29443 35093 ft 552 kts 107°
2026-05-06 14:23 26.58169 108.37671 35078 ft 555 kts 107°
2026-05-06 14:23 26.56222 108.45955 35058 ft 554 kts 104°
2026-05-06 14:24 26.54325 108.54218 35036 ft 553 kts 105°
2026-05-06 14:24 26.52393 108.62568 35038 ft 555 kts 105°
2026-05-06 14:25 26.50460 108.70876 35038 ft 554 kts 105°
2026-05-06 14:25 26.48519 108.79179 35040 ft 554 kts 105°
2026-05-06 14:26 26.46579 108.87448 35039 ft 554 kts 105°
2026-05-06 14:26 26.44495 108.95659 35033 ft 552 kts 112°
2026-05-06 14:27 26.40869 109.03111 35039 ft 548 kts 129°
2026-05-06 14:27 26.35605 109.09177 35044 ft 541 kts 143°
2026-05-06 14:28 26.29783 109.14471 35047 ft 541 kts 144°
2026-05-06 14:28 26.24033 109.19650 34296 ft 524 kts 144°
2026-05-06 14:29 26.21208 109.22186 33005 ft 529 kts 144°
2026-05-06 14:29 26.18343 109.24754 31697 ft 535 kts 144°
2026-05-06 14:29 26.15424 109.27366 30391 ft 540 kts 144°
2026-05-06 14:29 26.12524 109.29961 29155 ft 537 kts 144°
2026-05-06 14:30 26.09654 109.32531 28141 ft 517 kts 144°
2026-05-06 14:30 26.06931 109.34969 27412 ft 494 kts 144°
2026-05-06 14:30 26.04320 109.37304 26805 ft 471 kts 144°
2026-05-06 14:30 26.01811 109.39545 26271 ft 450 kts 144°
2026-05-06 14:31 25.99435 109.41664 25836 ft 429 kts 144°
2026-05-06 14:31 25.97175 109.43679 25468 ft 409 kts 145°
2026-05-06 14:31 25.95005 109.45612 25237 ft 391 kts 145°
2026-05-06 14:31 25.92907 109.47478 25162 ft 379 kts 145°
2026-05-06 14:32 25.90874 109.49284 24863 ft 374 kts 145°
2026-05-06 14:32 25.88850 109.51080 24419 ft 373 kts 145°
2026-05-06 14:32 25.86802 109.52895 23729 ft 380 kts 145°
2026-05-06 14:32 25.84720 109.54740 22704 ft 390 kts 144°
2026-05-06 14:33 25.82623 109.56602 21778 ft 390 kts 144°
2026-05-06 14:33 25.80499 109.58488 20853 ft 389 kts 144°
2026-05-06 14:33 25.78405 109.60351 19941 ft 387 kts 142°
2026-05-06 14:33 25.76500 109.62406 19038 ft 387 kts 135°
2026-05-06 14:34 25.74699 109.64588 18138 ft 385 kts 135°
2026-05-06 14:34 25.72893 109.66788 17223 ft 382 kts 135°
2026-05-06 14:34 25.71122 109.68944 16353 ft 379 kts 135°
2026-05-06 14:34 25.69374 109.71068 15486 ft 375 kts 135°
2026-05-06 14:35 25.67622 109.73196 14595 ft 372 kts 135°
2026-05-06 14:35 25.65889 109.75298 13700 ft 368 kts 135°
2026-05-06 14:35 25.64183 109.77367 12794 ft 364 kts 135°
2026-05-06 14:35 25.62476 109.79436 11868 ft 360 kts 135°
2026-05-06 14:36 25.60803 109.81462 10949 ft 355 kts 135°
2026-05-06 14:36 25.59141 109.83473 10023 ft 350 kts 135°
2026-05-06 14:36 25.57523 109.85432 9112 ft 345 kts 136°
2026-05-06 14:36 25.55911 109.87380 8183 ft 339 kts 135°
2026-05-06 14:37 25.54356 109.89260 7324 ft 331 kts 135°
2026-05-06 14:37 25.52843 109.91092 7030 ft 305 kts 136°
2026-05-06 14:37 25.51478 109.92744 6926 ft 280 kts 136°
2026-05-06 14:37 25.50184 109.94303 6938 ft 270 kts 137°
2026-05-06 14:38 25.48774 109.95641 6942 ft 265 kts 150°
2026-05-06 14:38 25.47144 109.96559 6937 ft 258 kts 163°
2026-05-06 14:38 25.45419 109.97023 6931 ft 256 kts 176°
2026-05-06 14:38 25.43648 109.97048 6929 ft 253 kts 186°
2026-05-06 14:39 25.41897 109.96887 6949 ft 254 kts 187°
2026-05-06 14:39 25.40148 109.96719 6887 ft 252 kts 186°
2026-05-06 14:39 25.38391 109.96550 6682 ft 252 kts 186°
2026-05-06 14:39 25.36644 109.96383 6463 ft 249 kts 186°
2026-05-06 14:40 25.34916 109.96218 6249 ft 246 kts 186°
2026-05-06 14:40 25.33215 109.96055 6033 ft 244 kts 186°
2026-05-06 14:40 25.31501 109.95891 5819 ft 245 kts 186°
2026-05-06 14:40 25.29793 109.95728 5593 ft 245 kts 186°
2026-05-06 14:41 25.28067 109.95563 5368 ft 245 kts 185°
2026-05-06 14:41 25.26353 109.95400 5143 ft 245 kts 185°
2026-05-06 14:41 25.24645 109.95236 4923 ft 244 kts 185°
2026-05-06 14:41 25.22950 109.95074 4703 ft 243 kts 185°
2026-05-06 14:42 25.21264 109.94913 4478 ft 242 kts 185°
2026-05-06 14:42 25.19590 109.94754 4253 ft 239 kts 185°
2026-05-06 14:42 25.17931 109.94596 4016 ft 236 kts 185°
2026-05-06 14:42 25.16309 109.94441 3902 ft 229 kts 185°
2026-05-06 14:43 25.14739 109.94292 3895 ft 220 kts 185°
2026-05-06 14:43 25.13209 109.94146 3889 ft 221 kts 185°
2026-05-06 14:43 25.11652 109.93997 3896 ft 221 kts 185°
2026-05-06 14:43 25.10106 109.93850 3901 ft 221 kts 185°
2026-05-06 14:44 25.08574 109.93704 3890 ft 220 kts 185°
2026-05-06 14:44 25.07044 109.93559 3880 ft 219 kts 185°
2026-05-06 14:44 25.05514 109.93413 3897 ft 220 kts 185°
2026-05-06 14:45 25.02420 109.93118 3880 ft 219 kts 185°
2026-05-06 14:45 25.00893 109.92973 3876 ft 219 kts 185°
2026-05-06 14:45 24.99363 109.92828 3880 ft 220 kts 185°
2026-05-06 14:45 24.97835 109.92683 3875 ft 219 kts 185°
2026-05-06 14:46 24.96330 109.92541 3900 ft 215 kts 185°
2026-05-06 14:46 24.94851 109.92400 3901 ft 210 kts 185°
2026-05-06 14:46 24.93385 109.92260 3889 ft 210 kts 185°
2026-05-06 14:46 24.91904 109.92146 3897 ft 210 kts 179°
2026-05-06 14:47 24.90495 109.92496 3887 ft 212 kts 158°
2026-05-06 14:47 24.89287 109.93460 3891 ft 214 kts 135°
2026-05-06 14:47 24.88522 109.94893 3894 ft 222 kts 113°
2026-05-06 14:47 24.88259 109.96586 3889 ft 224 kts 100°
2026-05-06 14:48 24.88221 109.98315 3894 ft 227 kts 84°
2026-05-06 14:48 24.88864 109.99882 3889 ft 225 kts 56°
2026-05-06 14:48 24.90129 110.00906 3889 ft 232 kts 21°
2026-05-06 14:48 24.91734 110.01169 3900 ft 233 kts
2026-05-06 14:49 24.93389 110.01259 3884 ft 233 kts
2026-05-06 14:49 24.95015 110.01363 3889 ft 233 kts
2026-05-06 14:49 24.96637 110.01492 3889 ft 232 kts
2026-05-06 14:49 24.98268 110.01643 3888 ft 232 kts
2026-05-06 14:50 24.99880 110.01804 3881 ft 226 kts
2026-05-06 14:50 25.01397 110.01965 3879 ft 209 kts
2026-05-06 14:50 25.02795 110.02111 3856 ft 196 kts
2026-05-06 14:50 25.04116 110.02243 3885 ft 187 kts
2026-05-06 14:51 25.05432 110.02371 3767 ft 187 kts
2026-05-06 14:51 25.06723 110.02492 3426 ft 184 kts
2026-05-06 14:51 25.07994 110.02614 3055 ft 181 kts
2026-05-06 14:51 25.09223 110.02731 2823 ft 175 kts
2026-05-06 14:52 25.10447 110.02849 2585 ft 174 kts
2026-05-06 14:52 25.11653 110.02962 2344 ft 169 kts
2026-05-06 14:52 25.12834 110.03076 2110 ft 170 kts
2026-05-06 14:52 25.14026 110.03190 1867 ft 169 kts
2026-05-06 14:53 25.15190 110.03301 1636 ft 166 kts
2026-05-06 14:53 25.16362 110.03413 1406 ft 166 kts
2026-05-06 14:53 25.17509 110.03522 1183 ft 164 kts
2026-05-06 14:53 25.18643 110.03630 968 ft 162 kts
2026-05-06 14:54 25.19754 110.03741 749 ft 160 kts
2026-05-06 14:54 25.20862 110.03840 573 ft 155 kts
2026-05-06 14:54 25.21776 110.03929 556 ft 91 kts
2026-05-06 14:54 25.22107 110.03966 552 ft 24 kts 11°
2026-05-06 14:55 25.22166 110.04095 551 ft 14 kts 88°
2026-05-06 14:55 25.22162 110.04163 549 ft 3 kts 95°
2026-05-06 14:55 25.22161 110.04168 549 ft 0 kts 95°
2026-05-06 14:58 25.22161 110.04170 549 ft 1 kts 95°
2026-05-06 14:58 25.22157 110.04212 548 ft 7 kts 95°
2026-05-06 14:59 25.22152 110.04273 547 ft 7 kts 95°
2026-05-06 14:59 25.22147 110.04332 545 ft 7 kts 95°
2026-05-06 14:59 25.22142 110.04393 545 ft 7 kts 95°
2026-05-06 14:59 25.22136 110.04452 546 ft 7 kts 96°
2026-05-06 15:00 25.22118 110.04508 546 ft 7 kts 118°
2026-05-06 15:00 25.22100 110.04549 546 ft 6 kts 108°
2026-05-06 15:00 25.22095 110.04589 546 ft 2 kts 93°
2026-05-06 15:00 25.22094 110.04596 546 ft 0 kts 93°
2026-05-06 15:01 25.22094 110.04583 545 ft 0 kts 93°
2026-05-06 15:01 25.22095 110.04584 546 ft 0 kts 93°